Location: Peterborough
(44.3091°N, 78.3197°W)
Time: 05:05:48
(UTC-04:00)

Tiros 1 - Pass Details

Date: 05 April 2023
Orbit: 627 x 661 km, 48.4° (Epoch: 09 June)

Event Time Altitude Azimuth Distance (km) Brightness Sun altitude
Rises 09:01:26 0° 288° (WNW) 2,992 10.0 23.0°
Reaches altitude 10° 09:04:10 10° 274° (W) 2,076 9.3 23.4°
Maximum altitude 09:07:54 23° 223° (SW) 1,400 8.8 24.1°
Drops below altitude 10° 09:11:37 10° 171° (S) 2,061 10.2 24.7°
Sets 09:14:20 0° 157° (SSE) 2,964 11.1 25.2°
